| time (UTC) | temp F | wind direction | speed knots | gust knots | rain 1hr in | rain 24hr in | rain mn in | humidity % | barometer mb |
| 20260509075145 | 64 | 18 | 2.6 | 5.2 | 0.00 | 0.70 | 0.70 | 90 | 1019.8 |
| 20260509074642 | 64 | 17 | 5.2 | 7.8 | 0.00 | 0.70 | 0.70 | 89 | 1019.6 |
| 20260509074138 | 64 | 28 | 0.9 | 7.8 | 0.00 | 0.70 | 0.70 | 89 | 1019.7 |
| 20260509073635 | 64 | 353 | 7.8 | 9.6 | 0.00 | 0.70 | 0.70 | 89 | 1019.5 |
| 20260509073131 | 65 | 330 | 6.1 | 12.2 | 0.00 | 0.70 | 0.70 | 89 | 1019.4 |
| 20260509072628 | 65 | 44 | 3.5 | 7.0 | 0.07 | 0.70 | 0.70 | 89 | 1019.4 |
| 20260509072125 | 66 | 356 | 5.2 | 6.1 | 0.00 | 0.69 | 0.69 | 89 | 1019.0 |
| 20260509071622 | 66 | 40 | 3.5 | 6.1 | 0.00 | 0.69 | 0.69 | 88 | 1019.1 |
| 20260509071119 | 66 | 16 | 1.7 | 3.5 | 0.00 | 0.69 | 0.69 | 87 | 1019.5 |
| 20260509070616 | 66 | 53 | 1.7 | 7.0 | 0.00 | 0.69 | 0.69 | 86 | 1019.4 |
| 20260509070112 | 66 | 333 | 2.6 | 3.5 | 0.00 | 0.69 | 0.69 | 85 | 1019.4 |
| 20260509065608 | 66 | 62 | 2.6 | 9.6 | 0.00 | 0.69 | 0.69 | 85 | 1019.4 |
| 20260509065104 | 65 | 310 | 4.3 | 7.0 | 0.00 | 0.69 | 0.69 | 86 | 1019.7 |
| 20260509064602 | 65 | 56 | 1.7 | 2.6 | 0.00 | 0.69 | 0.69 | 87 | 1019.5 |
| 20260509064100 | 65 | 292 | 3.5 | 6.1 | 0.00 | 0.69 | 0.69 | 88 | 1019.7 |
| 20260509063555 | 65 | 71 | 0.0 | 5.2 | 0.00 | 0.69 | 0.69 | 88 | 1019.4 |
| 20260509063053 | 65 | 292 | 4.3 | 7.0 | 0.00 | 0.69 | 0.69 | 88 | 1019.5 |
| 20260509062550 | 65 | 351 | 1.7 | 2.6 | 0.00 | 0.69 | 0.69 | 88 | 1019.7 |
| 20260509062047 | 65 | 279 | 1.7 | 3.5 | 0.00 | 0.69 | 0.69 | 88 | 1019.7 |
| 20260509061544 | 65 | 91 | 0.0 | 6.1 | 0.00 | 0.69 | 0.69 | 87 | 1019.6 |
| 20260509061041 | 65 | 2 | 3.5 | 7.0 | 0.00 | 0.69 | 0.69 | 87 | 1019.4 |
| 20260509060539 | 65 | 353 | 2.6 | 7.0 | 0.00 | 0.69 | 0.69 | 87 | 1019.5 |
| 20260509060034 | 65 | 69 | 0.0 | 2.6 | 0.00 | 0.69 | 0.69 | 87 | 1019.6 |
| 20260509055530 | 65 | 324 | 1.7 | 1.7 | 0.00 | 0.69 | 0.69 | 87 | 1019.6 |
| 20260509055026 | 65 | 347 | 1.7 | 2.6 | 0.00 | 0.69 | 0.69 | 87 | 1019.6 |
| 20260509054523 | 65 | 40 | 1.7 | 2.6 | 0.00 | 0.69 | 0.69 | 87 | 1019.7 |
| 20260509054021 | 65 | 91 | 0.0 | 3.5 | 0.00 | 0.69 | 0.69 | 87 | 1020.1 |
| 20260509053519 | 65 | 85 | 0.0 | 1.7 | 0.05 | 0.69 | 0.69 | 87 | 1020.1 |
| 20260509053016 | 65 | 79 | 0.9 | 1.7 | 0.05 | 0.69 | 0.69 | 88 | 1019.8 |
| 20260509052514 | 65 | 26 | 1.7 | 3.5 | 0.12 | 0.68 | 0.68 | 87 | 1019.9 |
| 20260509052012 | 65 | 297 | 4.3 | 6.1 | 0.12 | 0.68 | 0.68 | 87 | 1020.2 |
| 20260509051509 | 65 | 333 | 0.9 | 2.6 | 0.00 | 0.66 | 0.66 | 88 | 1020.0 |
| 20260509051006 | 65 | 342 | 2.6 | 7.0 | 0.00 | 0.66 | 0.66 | 87 | 1020.1 |
| 20260509050502 | 65 | 106 | 0.0 | 3.5 | 0.00 | 0.66 | 0.66 | 87 | 1020.2 |
| 20260509045959 | 65 | 324 | 3.5 | 6.1 | 0.00 | 0.66 | 0.66 | 88 | 1020.1 |
| 20260509045456 | 65 | 78 | 1.7 | 3.5 | 0.00 | 0.66 | 0.66 | 89 | 1020.3 |
| 20260509044953 | 64 | 74 | 0.0 | 3.5 | 0.07 | 0.66 | 0.66 | 89 | 1020.3 |
| 20260509044451 | 65 | 5 | 3.5 | 8.7 | 0.07 | 0.66 | 0.66 | 90 | 1020.5 |
| 20260509043948 | 65 | 29 | 1.7 | 5.2 | 0.05 | 0.65 | 0.65 | 91 | 1020.1 |
| 20260509043443 | 65 | 102 | 2.6 | 5.2 | 0.05 | 0.65 | 0.65 | 91 | 1020.2 |
| 20260509042939 | 65 | 20 | 0.9 | 5.2 | 0.07 | 0.64 | 0.64 | 92 | 1020.5 |
| 20260509042437 | 65 | 12 | 0.9 | 2.6 | 0.12 | 0.64 | 0.64 | 92 | 1020.6 |
| 20260509041933 | 65 | 19 | 0.9 | 3.5 | 0.12 | 0.63 | 0.63 | 91 | 1020.4 |
| 20260509041430 | 65 | 286 | 2.6 | 6.1 | 0.12 | 0.62 | 0.62 | 91 | 1020.5 |
| 20260509040928 | 65 | 59 | 0.9 | 7.8 | 0.17 | 0.61 | 0.61 | 92 | 1020.5 |
| 20260509040426 | 65 | 93 | 3.5 | 6.1 | 0.12 | 0.60 | 0.60 | 92 | 1020.4 |
| 20260509035922 | 65 | 349 | 1.7 | 2.6 | 0.00 | 0.58 | 0.58 | 92 | 1020.2 |
| 20260509035419 | 65 | 52 | 0.9 | 5.2 | 0.00 | 0.58 | 0.58 | 92 | 1020.1 |
| 20260509034915 | 65 | 53 | 1.7 | 3.5 | 0.07 | 0.58 | 0.58 | 92 | 1020.5 |
| 20260509034414 | 65 | 351 | 3.5 | 7.0 | 0.07 | 0.58 | 0.58 | 92 | 1020.5 |
| 20260509033910 | 65 | 345 | 3.5 | 7.8 | 0.00 | 0.57 | 0.57 | 93 | 1020.9 |
| 20260509033407 | 65 | 352 | 2.6 | 7.8 | 0.07 | 0.57 | 0.57 | 92 | 1021.0 |
| 20260509032904 | 65 | 82 | 0.0 | 2.6 | 0.07 | 0.57 | 0.57 | 93 | 1021.0 |
| 20260509032401 | 65 | 219 | 1.7 | 2.6 | 0.05 | 0.56 | 0.56 | 93 | 1020.9 |
| 20260509031859 | 65 | 303 | 2.6 | 6.1 | 0.05 | 0.56 | 0.56 | 93 | 1021.0 |
| 20260509031356 | 65 | 316 | 3.5 | 7.0 | 0.00 | 0.55 | 0.55 | 93 | 1021.0 |
| 20260509030853 | 65 | 345 | 1.7 | 3.5 | 0.00 | 0.55 | 0.55 | 93 | 1020.9 |
| 20260509030351 | 65 | 268 | 1.7 | 2.6 | 0.00 | 0.55 | 0.55 | 93 | 1021.0 |
| 20260509025843 | 65 | 90 | 0.9 | 1.7 | 0.00 | 0.55 | 0.55 | 94 | 1021.1 |
| 20260509025338 | 64 | 65 | 1.7 | 5.2 | 0.00 | 0.55 | 0.55 | 93 | 1021.2 |
| 20260509024833 | 64 | 282 | 2.6 | 5.2 | 0.07 | 0.55 | 0.55 | 93 | 1021.2 |
| 20260509024329 | 64 | 65 | 0.0 | 0.9 | 0.07 | 0.55 | 0.55 | 93 | 1021.3 |
| 20260509023826 | 64 | 64 | 0.0 | 0.9 | 0.05 | 0.54 | 0.54 | 93 | 1021.1 |
| 20260509023324 | 64 | 332 | 1.7 | 8.7 | 0.12 | 0.54 | 0.54 | 93 | 1021.1 |
| 20260509022820 | 64 | 42 | 0.9 | 2.6 | 0.24 | 0.53 | 0.53 | 93 | 1021.2 |
| 20260509022318 | 64 | 95 | 0.9 | 2.6 | 0.35 | 0.52 | 0.52 | 93 | 1021.2 |
| 20260509021814 | 64 | 51 | 0.0 | 1.7 | 0.38 | 0.49 | 0.49 | 93 | 1021.5 |
| 20260509021312 | 64 | 349 | 1.7 | 2.6 | 0.24 | 0.46 | 0.46 | 93 | 1021.5 |
| 20260509020809 | 64 | 279 | 1.7 | 1.7 | 0.12 | 0.43 | 0.43 | 93 | 1021.2 |
| 20260509020307 | 64 | 304 | 0.9 | 1.7 | 0.12 | 0.42 | 0.42 | 93 | 1021.5 |
| 20260509015804 | 64 | 341 | 1.7 | 1.7 | 0.12 | 0.41 | 0.41 | 93 | 1021.3 |
| 20260509015306 | 64 | 81 | 0.0 | 1.7 | 0.07 | 0.40 | 0.40 | 93 | 1021.2 |
| 20260509014758 | 64 | 67 | 0.0 | 6.1 | 0.05 | 0.39 | 0.39 | 92 | 1021.1 |
| 20260509014255 | 64 | 81 | 0.0 | 1.7 | 0.05 | 0.39 | 0.39 | 92 | 1021.1 |
| 20260509013752 | 64 | 341 | 1.7 | 6.1 | 0.07 | 0.38 | 0.38 | 92 | 1021.1 |
| 20260509013248 | 64 | 74 | 0.9 | 2.6 | 0.12 | 0.38 | 0.38 | 92 | 1021.1 |
| 20260509012745 | 64 | 3 | 2.6 | 3.5 | 0.12 | 0.37 | 0.37 | 92 | 1020.7 |
| 20260509012241 | 64 | 19 | 1.7 | 5.2 | 0.07 | 0.36 | 0.36 | 92 | 1020.8 |
| 20260509011739 | 64 | 290 | 2.6 | 6.1 | 0.05 | 0.35 | 0.35 | 92 | 1020.9 |
| 20260509011236 | 64 | 342 | 1.7 | 7.0 | 0.05 | 0.35 | 0.35 | 92 | 1021.1 |
| 20260509010729 | 64 | 282 | 2.6 | 3.5 | 0.07 | 0.34 | 0.34 | 92 | 1020.8 |
| 20260509010225 | 64 | 331 | 1.7 | 5.2 | 0.14 | 0.34 | 0.34 | 92 | 1020.9 |
| 20260509005722 | 64 | 151 | 1.7 | 3.5 | 0.19 | 0.33 | 0.33 | 92 | 1020.8 |
| 20260509005220 | 64 | 68 | 2.6 | 6.1 | 0.24 | 0.31 | 0.31 | 92 | 1020.4 |
| 20260509004719 | 64 | 347 | 2.6 | 2.6 | 0.24 | 0.30 | 0.30 | 92 | 1020.6 |
| 20260509004217 | 64 | 335 | 3.5 | 5.2 | 0.19 | 0.27 | 0.27 | 92 | 1020.8 |
| 20260509003715 | 63 | 318 | 2.6 | 7.8 | 0.28 | 0.26 | 0.26 | 92 | 1020.7 |
| 20260509003213 | 63 | 264 | 2.6 | 7.0 | 0.26 | 0.23 | 0.23 | 92 | 1020.8 |
| 20260509002709 | 63 | 89 | 0.0 | 3.5 | 0.31 | 0.21 | 0.21 | 92 | 1020.6 |
| 20260509002207 | 63 | 335 | 0.9 | 3.5 | 0.40 | 0.19 | 0.19 | 91 | 1020.7 |
| 20260509001704 | 63 | 271 | 0.9 | 5.2 | 0.40 | 0.15 | 0.15 | 91 | 1020.6 |
| 20260509001200 | 63 | 301 | 1.7 | 2.6 | 0.54 | 0.12 | 0.12 | 91 | 1020.8 |
| 20260509000659 | 63 | 7 | 3.5 | 6.1 | 0.31 | 0.07 | 0.07 | 90 | 1020.7 |
| 20260509000155 | 63 | 298 | 3.5 | 5.2 | 0.00 | 0.02 | 0.02 | 90 | 1020.8 |
| 20260508235652 | 63 | 312 | 1.7 | 5.2 | 0.00 | 0.02 | 0.02 | 90 | 1020.8 |
| 20260508235148 | 63 | 275 | 0.9 | 3.5 | 0.00 | 0.02 | 0.02 | 90 | 1020.6 |
| 20260508234646 | 63 | 254 | 4.3 | 8.7 | 0.00 | 0.02 | 0.02 | 90 | 1020.3 |
| 20260508234142 | 63 | 308 | 0.9 | 5.2 | 0.00 | 0.02 | 0.02 | 89 | 1020.1 |
| 20260508233642 | 63 | 296 | 5.2 | 7.0 | 0.00 | 0.02 | 0.02 | 89 | 1020.1 |
| 20260508233139 | 63 | 316 | 2.6 | 7.0 | 0.00 | 0.02 | 0.02 | 89 | 1019.9 |
| 20260508232636 | 64 | 272 | 2.6 | 7.0 | 0.05 | 0.02 | 0.02 | 88 | 1019.8 |
| 20260508232133 | 64 | 284 | 3.5 | 7.8 | 0.00 | 0.01 | 0.01 | 87 | 1019.8 |
| 20260508231631 | 64 | 159 | 3.5 | 9.6 | 0.00 | 0.01 | 0.01 | 86 | 1019.9 |
| 20260508231127 | 65 | 296 | 7.8 | 11.3 | 0.00 | 0.01 | 0.01 | 84 | 1019.9 |
| 20260508230624 | 65 | 271 | 2.6 | 7.8 | 0.00 | 0.01 | 0.01 | 83 | 1020.0 |
| 20260508230120 | 65 | 340 | 5.2 | 7.8 | 0.00 | 0.01 | 0.01 | 82 | 1019.9 |
| 20260508225619 | 65 | 323 | 7.8 | 8.7 | 0.00 | 0.01 | 0.01 | 82 | 1020.0 |
| 20260508225114 | 65 | 299 | 5.2 | 9.6 | 0.00 | 0.01 | 0.01 | 82 | 1020.1 |
| 20260508224612 | 65 | 279 | 1.7 | 9.6 | 0.00 | 0.01 | 0.01 | 82 | 1019.9 |
| 20260508224110 | 65 | 251 | 4.3 | 11.3 | 0.00 | 0.01 | 0.01 | 82 | 1020.0 |
| 20260508223608 | 65 | 310 | 3.5 | 11.3 | 0.00 | 0.01 | 0.01 | 83 | 1020.1 |
| 20260508223104 | 65 | 335 | 5.2 | 12.2 | 0.00 | 0.01 | 0.01 | 84 | 1019.9 |
| 20260508222601 | 66 | 294 | 1.7 | 9.6 | 0.00 | 0.01 | 0.01 | 85 | 1019.6 |
| 20260508222059 | 65 | 309 | 4.3 | 7.0 | 0.00 | 0.01 | 0.01 | 86 | 1019.7 |
| 20260508221555 | 65 | 26 | 4.3 | 8.7 | 0.00 | 0.01 | 0.01 | 87 | 1019.6 |
| 20260508221050 | 65 | 306 | 6.1 | 8.7 | 0.00 | 0.01 | 0.01 | 89 | 1019.5 |
| 20260508220547 | 65 | 1 | 2.6 | 6.1 | 0.00 | 0.01 | 0.01 | 90 | 1019.5 |
| 20260508220043 | 65 | 349 | 1.7 | 7.0 | 0.00 | 0.01 | 0.01 | 90 | 1019.6 |
| 20260508215541 | 65 | 53 | 2.6 | 8.7 | 0.00 | 0.01 | 0.01 | 91 | 1019.6 |
| 20260508215037 | 66 | 315 | 1.7 | 6.1 | 0.00 | 0.01 | 0.01 | 91 | 1019.3 |
| 20260508214535 | 66 | 343 | 2.6 | 7.8 | 0.00 | 0.01 | 0.01 | 91 | 1019.5 |
| 20260508214031 | 66 | 282 | 4.3 | 8.7 | 0.00 | 0.01 | 0.01 | 91 | 1019.1 |
| 20260508213529 | 66 | 270 | 1.7 | 2.6 | 0.00 | 0.01 | 0.01 | 92 | 1019.0 |
| 20260508213024 | 66 | 21 | 0.0 | 3.5 | 0.00 | 0.01 | 0.01 | 91 | 1019.0 |
| 20260508212521 | 66 | 331 | 3.5 | 7.0 | 0.00 | 0.01 | 0.01 | 92 | 1019.0 |
| 20260508212017 | 66 | 318 | 3.5 | 6.1 | 0.00 | 0.01 | 0.01 | 92 | 1019.2 |
| 20260508211513 | 66 | 2 | 3.5 | 7.0 | 0.00 | 0.01 | 0.01 | 92 | 1018.9 |
| 20260508211010 | 66 | 334 | 7.8 | 11.3 | 0.00 | 0.01 | 0.01 | 92 | 1018.9 |
| 20260508210506 | 67 | 358 | 2.6 | 6.1 | 0.00 | 0.01 | 0.01 | 92 | 1018.7 |
| 20260508210003 | 67 | 287 | 6.1 | 7.8 | 0.00 | 0.01 | 0.01 | 92 | 1018.8 |
| 20260508205500 | 67 | 312 | 4.3 | 7.0 | 0.00 | 0.01 | 0.01 | 92 | 1018.5 |
| 20260508204956 | 68 | 263 | 1.7 | 8.7 | 0.00 | 0.01 | 0.01 | 92 | 1018.6 |
| 20260508204454 | 68 | 303 | 4.3 | 7.8 | 0.00 | 0.01 | 0.01 | 92 | 1018.6 |
| 20260508203949 | 68 | 259 | 1.7 | 2.6 | 0.00 | 0.01 | 0.01 | 92 | 1018.2 |
| 20260508203445 | 68 | 309 | 0.9 | 5.2 | 0.00 | 0.01 | 0.01 | 91 | 1018.2 |
| 20260508202941 | 68 | 48 | 0.0 | 0.9 | 0.00 | 0.01 | 0.01 | 91 | 1018.3 |
| 20260508202438 | 68 | 95 | 0.0 | 0.0 | 0.00 | 0.01 | 0.01 | 91 | 1018.5 |
| 20260508201935 | 68 | 339 | 0.9 | 2.6 | 0.00 | 0.01 | 0.01 | 91 | 1018.1 |
| 20260508201432 | 68 | 39 | 0.9 | 1.7 | 0.00 | 0.01 | 0.01 | 91 | 1018.2 |
| 20260508200929 | 68 | 93 | 0.0 | 1.7 | 0.00 | 0.01 | 0.01 | 91 | 1018.3 |
| 20260508200426 | 68 | 67 | 0.9 | 1.7 | 0.00 | 0.01 | 0.01 | 92 | 1018.4 |
| 20260508195921 | 68 | 345 | 1.7 | 1.7 | 0.00 | 0.01 | 0.01 | 92 | 1018.4 |
| 20260508195418 | 68 | 52 | 0.0 | 1.7 | 0.00 | 0.01 | 0.01 | 92 | 1018.1 |
| 20260508194914 | 68 | 3 | 0.9 | 1.7 | 0.00 | 0.01 | 0.01 | 92 | 1018.3 |
| 20260508194412 | 68 | 64 | 1.7 | 1.7 | 0.00 | 0.01 | 0.01 | 92 | 1018.3 |
| 20260508193908 | 68 | 311 | 2.6 | 3.5 | 0.00 | 0.01 | 0.01 | 92 | 1018.3 |
| 20260508193405 | 68 | 349 | 0.0 | 1.7 | 0.00 | 0.01 | 0.01 | 92 | 1018.3 |
| 20260508192902 | 68 | 347 | 0.0 | 0.9 | 0.00 | 0.01 | 0.01 | 92 | 1018.3 |
| 20260508192358 | 68 | 16 | 0.0 | 2.6 | 0.00 | 0.01 | 0.01 | 92 | 1018.3 |
| 20260508191856 | 68 | 318 | 0.9 | 1.7 | 0.00 | 0.01 | 0.01 | 92 | 1018.1 |
| 20260508191353 | 68 | 73 | 0.0 | 0.9 | 0.00 | 0.01 | 0.01 | 92 | 1018.5 |
| 20260508190850 | 68 | 33 | 2.6 | 3.5 | 0.00 | 0.01 | 0.01 | 92 | 1018.2 |
| 20260508190346 | 68 | 333 | 0.9 | 1.7 | 0.00 | 0.01 | 0.01 | 92 | 1018.2 |
| 20260508185843 | 68 | 7 | 3.5 | 3.5 | 0.00 | 0.01 | 0.01 | 92 | 1018.3 |
| 20260508185340 | 68 | 89 | 0.0 | 3.5 | 0.00 | 0.01 | 0.01 | 92 | 1018.3 |
| 20260508184838 | 68 | 129 | 0.0 | 1.7 | 0.00 | 0.01 | 0.01 | 92 | 1018.2 |
| 20260508184335 | 68 | 271 | 2.6 | 3.5 | 0.00 | 0.01 | 0.01 | 92 | 1018.1 |
| 20260508183831 | 68 | 61 | 1.7 | 6.1 | 0.00 | 0.01 | 0.01 | 92 | 1018.2 |
| 20260508183328 | 68 | 334 | 1.7 | 2.6 | 0.00 | 0.01 | 0.01 | 92 | 1018.3 |
| 20260508182824 | 68 | 338 | 1.7 | 5.2 | 0.00 | 0.01 | 0.01 | 92 | 1018.2 |
| 20260508182321 | 68 | 275 | 0.9 | 1.7 | 0.00 | 0.01 | 0.01 | 93 | 1018.2 |
| 20260508181816 | 68 | 44 | 0.9 | 3.5 | 0.00 | 0.01 | 0.01 | 93 | 1018.3 |
| 20260508181314 | 68 | 61 | 0.9 | 2.6 | 0.00 | 0.01 | 0.01 | 93 | 1018.1 |
| 20260508180810 | 68 | 19 | 0.9 | 1.7 | 0.00 | 0.01 | 0.01 | 93 | 1018.3 |
| 20260508180308 | 68 | 38 | 1.7 | 3.5 | 0.00 | 0.01 | 0.01 | 93 | 1017.9 |
| 20260508175803 | 68 | 19 | 1.7 | 1.7 | 0.00 | 0.01 | 0.01 | 93 | 1018.2 |
| 20260508175300 | 68 | 26 | 0.9 | 3.5 | 0.00 | 0.01 | 0.01 | 93 | 1018.1 |
| 20260508174758 | 68 | 89 | 0.0 | 0.9 | 0.00 | 0.01 | 0.01 | 93 | 1018.3 |
| 20260508174256 | 68 | 77 | 0.0 | 0.9 | 0.00 | 0.01 | 0.01 | 93 | 1018.3 |
| 20260508173752 | 68 | 259 | 2.6 | 3.5 | 0.00 | 0.01 | 0.01 | 93 | 1018.3 |
| 20260508173248 | 68 | 353 | 0.9 | 1.7 | 0.00 | 0.01 | 0.01 | 93 | 1018.3 |
| 20260508172745 | 68 | 0 | 1.7 | 1.7 | 0.00 | 0.01 | 0.01 | 93 | 1018.3 |
| 20260508172242 | 68 | 2 | 0.9 | 5.2 | 0.00 | 0.01 | 0.01 | 93 | 1018.4 |
| 20260508171738 | 68 | 325 | 1.7 | 3.5 | 0.00 | 0.01 | 0.01 | 93 | 1018.4 |
| 20260508171234 | 67 | 90 | 0.0 | 1.7 | 0.00 | 0.01 | 0.01 | 93 | 1018.5 |
| 20260508170731 | 67 | 295 | 1.7 | 3.5 | 0.00 | 0.01 | 0.01 | 93 | 1018.6 |
| 20260508170229 | 67 | 323 | 1.7 | 7.8 | 0.07 | 0.01 | 0.01 | 93 | 1018.6 |
| 20260508165726 | 67 | 239 | 0.0 | 3.5 | 0.07 | 0.01 | 0.01 | 93 | 1018.7 |
| 20260508165223 | 67 | 286 | 3.5 | 3.5 | 0.00 | 0.00 | 0.00 | 93 | 1018.7 |
| 20260508164720 | 67 | 96 | 0.0 | 0.9 | 0.00 | 0.00 | 0.00 | 93 | 1018.7 |
| 20260508164216 | 67 | 86 | 0.0 | 2.6 | 0.00 | 0.00 | 0.00 | 92 | 1018.7 |
| 20260508163714 | 67 | 359 | 0.0 | 0.0 | 0.00 | 0.00 | 0.00 | 92 | 1018.8 |
| 20260508163212 | 67 | 131 | 0.0 | 1.7 | 0.00 | 0.00 | 0.00 | 92 | 1018.8 |
| 20260508162707 | 67 | 295 | 3.5 | 6.1 | 0.00 | 0.00 | 0.00 | 92 | 1018.9 |
| 20260508162204 | 67 | 81 | 0.0 | 3.5 | 0.00 | 0.00 | 0.00 | 92 | 1018.9 |
| 20260508161701 | 68 | 357 | 3.5 | 6.1 | 0.00 | 0.00 | 0.00 | 92 | 1018.8 |
| 20260508161158 | 68 | 64 | 0.0 | 5.2 | 0.00 | 0.00 | 0.00 | 92 | 1018.9 |
| 20260508160657 | 68 | 300 | 1.7 | 5.2 | 0.00 | 0.00 | 0.00 | 92 | 1018.9 |
| 20260508160154 | 68 | 44 | 2.6 | 3.5 | 0.00 | 0.00 | 0.00 | 93 | 1018.7 |
| 20260508155651 | 68 | 349 | 0.9 | 1.7 | 0.00 | 0.00 | 0.00 | 93 | 1018.9 |
| 20260508155148 | 68 | 353 | 3.5 | 5.2 | 0.00 | 0.00 | 0.00 | 93 | 1018.9 |
| 20260508154645 | 68 | 300 | 3.5 | 3.5 | 0.00 | 0.00 | 0.00 | 93 | 1019.1 |
| 20260508154142 | 68 | 279 | 1.7 | 6.1 | 0.00 | 0.00 | 0.00 | 93 | 1019.2 |
| 20260508153638 | 68 | 26 | 1.7 | 3.5 | 0.00 | 0.00 | 0.00 | 93 | 1019.1 |
| 20260508153135 | 68 | 69 | 0.0 | 2.6 | 0.00 | 0.00 | 0.00 | 93 | 1019.0 |
| 20260508152632 | 68 | 297 | 3.5 | 6.1 | 0.00 | 0.00 | 0.00 | 93 | 1019.2 |
| 20260508152127 | 68 | 318 | 2.6 | 7.0 | 0.00 | 0.00 | 0.00 | 93 | 1019.2 |
| 20260508151624 | 68 | 282 | 1.7 | 5.2 | 0.00 | 0.00 | 0.00 | 93 | 1019.1 |
| 20260508151121 | 68 | 314 | 4.3 | 6.1 | 0.00 | 0.00 | 0.00 | 93 | 1019.5 |
| 20260508150618 | 68 | 168 | 0.0 | 5.2 | 0.00 | 0.00 | 0.00 | 92 | 1019.1 |
| 20260508150114 | 68 | 90 | 0.9 | 2.6 | 0.00 | 0.00 | 0.00 | 92 | 1019.4 |
| 20260508145605 | 68 | 348 | 2.6 | 7.0 | 0.00 | 0.59 | 0.59 | 92 | 1019.5 |
| 20260508145102 | 67 | 277 | 2.6 | 7.0 | 0.00 | 0.59 | 0.59 | 92 | 1019.6 |
| 20260508144600 | 67 | 341 | 0.9 | 2.6 | 0.05 | 0.59 | 0.59 | 93 | 1019.6 |
| 20260508144057 | 67 | 357 | 1.7 | 5.2 | 0.00 | 0.58 | 0.58 | 93 | 1019.8 |
| 20260508143554 | 67 | 291 | 3.5 | 6.1 | 0.00 | 0.58 | 0.58 | 93 | 1019.8 |
| 20260508143051 | 68 | 289 | 1.7 | 3.5 | 0.07 | 0.58 | 0.58 | 93 | 1020.0 |
| 20260508142548 | 68 | 282 | 1.7 | 7.0 | 0.05 | 0.57 | 0.57 | 93 | 1020.0 |
| 20260508142044 | 68 | 57 | 0.9 | 1.7 | 0.07 | 0.56 | 0.56 | 93 | 1019.6 |
| 20260508141541 | 67 | 358 | 0.9 | 1.7 | 0.07 | 0.56 | 0.56 | 93 | 1019.7 |
| 20260508141038 | 67 | 116 | 0.9 | 3.5 | 0.00 | 0.55 | 0.55 | 93 | 1019.6 |
| 20260508140536 | 68 | 37 | 0.9 | 3.5 | 0.00 | 0.55 | 0.55 | 93 | 1019.7 |
| 20260508140032 | 68 | 335 | 0.9 | 2.6 | 0.00 | 0.55 | 0.55 | 93 | 1019.7 |
| 20260508135527 | 68 | 233 | 1.7 | 3.5 | 0.00 | 0.55 | 0.55 | 93 | 1019.5 |
| 20260508135024 | 68 | 3 | 1.7 | 3.5 | 0.00 | 0.55 | 0.55 | 93 | 1019.6 |
| 20260508134521 | 68 | 64 | 0.0 | 1.7 | 0.00 | 0.55 | 0.55 | 93 | 1019.6 |
| 20260508134018 | 68 | 228 | 0.9 | 1.7 | 0.00 | 0.55 | 0.55 | 93 | 1019.6 |
| 20260508133515 | 68 | 270 | 0.0 | 0.9 | 0.00 | 0.55 | 0.55 | 93 | 1019.7 |
| 20260508133012 | 68 | 157 | 0.9 | 1.7 | 0.00 | 0.55 | 0.55 | 93 | 1019.7 |
| 20260508132510 | 68 | 254 | 1.7 | 3.5 | 0.00 | 0.55 | 0.55 | 92 | 1019.9 |
| 20260508132006 | 68 | 283 | 3.5 | 5.2 | 0.00 | 0.55 | 0.55 | 92 | 1019.9 |
| 20260508131501 | 68 | 321 | 2.6 | 5.2 | 0.00 | 0.55 | 0.55 | 92 | 1019.7 |
| 20260508130958 | 68 | 299 | 1.7 | 5.2 | 0.00 | 0.55 | 0.55 | 92 | 1019.7 |
| 20260508130456 | 68 | 281 | 5.2 | 7.8 | 0.07 | 0.55 | 0.55 | 92 | 1019.7 |
| 20260508125951 | 68 | 293 | 1.7 | 6.1 | 0.07 | 0.55 | 0.55 | 92 | 1019.7 |
| 20260508125447 | 68 | 330 | 2.6 | 6.1 | 0.00 | 0.54 | 0.54 | 92 | 1020.0 |
| 20260508124945 | 68 | 78 | 0.0 | 0.9 | 0.00 | 0.54 | 0.54 | 92 | 1020.2 |
| 20260508124443 | 68 | 17 | 1.7 | 2.6 | 0.00 | 0.54 | 0.54 | 92 | 1019.9 |
| 20260508123940 | 68 | 246 | 3.5 | 3.5 | 0.00 | 0.54 | 0.54 | 92 | 1020.0 |
| 20260508123439 | 68 | 297 | 0.9 | 6.1 | 0.05 | 0.54 | 0.54 | 92 | 1019.8 |
| 20260508122935 | 68 | 186 | 2.6 | 5.2 | 0.05 | 0.54 | 0.54 | 92 | 1019.8 |
| 20260508122432 | 68 | 290 | 2.6 | 5.2 | 0.00 | 0.53 | 0.53 | 92 | 1019.8 |
| 20260508121929 | 68 | 13 | 0.0 | 0.0 | 0.00 | 0.53 | 0.53 | 92 | 1019.7 |
| 20260508121427 | 68 | 10 | 0.9 | 2.6 | 0.00 | 0.53 | 0.53 | 92 | 1019.5 |
| 20260508120925 | 68 | 314 | 1.7 | 1.7 | 0.00 | 0.53 | 0.53 | 92 | 1019.4 |
| 20260508120422 | 68 | 312 | 2.6 | 3.5 | 0.00 | 0.53 | 0.53 | 92 | 1019.3 |
| 20260508115919 | 68 | 141 | 0.0 | 0.9 | 0.00 | 0.53 | 0.53 | 92 | 1019.1 |
| 20260508115418 | 68 | 27 | 3.5 | 5.2 | 0.00 | 0.53 | 0.53 | 92 | 1018.9 |
| 20260508114914 | 68 | 332 | 3.5 | 7.8 | 0.00 | 0.53 | 0.53 | 92 | 1018.8 |
| 20260508114410 | 68 | 309 | 3.5 | 7.8 | 0.00 | 0.53 | 0.53 | 92 | 1018.9 |
| 20260508113907 | 68 | 1 | 0.9 | 7.0 | 0.00 | 0.53 | 0.53 | 92 | 1018.8 |
| 20260508113405 | 68 | 283 | 2.6 | 3.5 | 0.00 | 0.53 | 0.53 | 92 | 1018.8 |
| 20260508112902 | 68 | 223 | 3.5 | 6.1 | 0.00 | 0.53 | 0.53 | 92 | 1019.0 |
| 20260508112359 | 69 | 352 | 2.6 | 7.8 | 0.07 | 0.53 | 0.53 | 92 | 1018.8 |
| 20260508111855 | 69 | 329 | 2.6 | 3.5 | 0.19 | 0.53 | 0.53 | 92 | 1018.9 |
| 20260508111352 | 69 | 302 | 7.0 | 8.7 | 0.12 | 0.52 | 0.52 | 92 | 1018.5 |
| 20260508110849 | 70 | 345 | 4.3 | 8.7 | 0.07 | 0.51 | 0.51 | 91 | 1018.7 |
| 20260508110347 | 70 | 269 | 3.5 | 6.1 | 0.00 | 0.50 | 0.50 | 91 | 1018.7 |
| 20260508105846 | 70 | 142 | 0.9 | 1.7 | 0.00 | 0.50 | 0.50 | 91 | 1018.8 |
| 20260508105343 | 70 | 273 | 2.6 | 6.1 | 0.00 | 0.50 | 0.50 | 91 | 1018.5 |
| 20260508104840 | 70 | 65 | 0.0 | 1.7 | 0.00 | 0.50 | 0.50 | 91 | 1018.5 |
| 20260508104336 | 70 | 35 | 0.9 | 3.5 | 0.00 | 0.50 | 0.50 | 91 | 1018.2 |
| 20260508103834 | 70 | 298 | 3.5 | 5.2 | 0.00 | 0.50 | 0.50 | 91 | 1018.2 |
| 20260508103331 | 70 | 345 | 1.7 | 2.6 | 0.05 | 0.50 | 0.50 | 91 | 1018.3 |
| 20260508102828 | 70 | 359 | 1.7 | 2.6 | 0.05 | 0.50 | 0.50 | 91 | 1018.1 |
| 20260508102326 | 70 | 351 | 3.5 | 6.1 | 0.00 | 0.49 | 0.49 | 91 | 1017.9 |
| 20260508101823 | 70 | 314 | 1.7 | 3.5 | 0.00 | 0.49 | 0.49 | 91 | 1018.2 |
| 20260508101321 | 70 | 308 | 1.7 | 6.1 | 0.00 | 0.49 | 0.49 | 91 | 1017.8 |
| 20260508100819 | 70 | 291 | 1.7 | 7.0 | 0.07 | 0.49 | 0.49 | 91 | 1017.8 |
| 20260508100317 | 71 | 279 | 5.2 | 6.1 | 0.12 | 0.49 | 0.49 | 91 | 1017.9 |
| 20260508095812 | 71 | 62 | 0.0 | 2.6 | 0.12 | 0.48 | 0.48 | 91 | 1017.9 |
| 20260508095310 | 71 | 234 | 0.0 | 1.7 | 0.07 | 0.47 | 0.47 | 91 | 1018.0 |
| 20260508094806 | 71 | 104 | 0.0 | 0.9 | 0.05 | 0.46 | 0.46 | 91 | 1018.0 |
| 20260508094304 | 71 | 95 | 0.0 | 2.6 | 0.05 | 0.46 | 0.46 | 90 | 1018.0 |
| 20260508093801 | 71 | 64 | 0.0 | 1.7 | 0.00 | 0.45 | 0.45 | 90 | 1017.7 |
| 20260508093258 | 71 | 136 | 0.9 | 1.7 | 0.00 | 0.45 | 0.45 | 90 | 1017.6 |
| 20260508092754 | 71 | 59 | 0.9 | 6.1 | 0.00 | 0.45 | 0.45 | 90 | 1017.6 |
| 20260508092253 | 71 | 356 | 2.6 | 3.5 | 0.00 | 0.45 | 0.45 | 90 | 1017.3 |
| 20260508091751 | 71 | 25 | 2.6 | 7.8 | 0.07 | 0.45 | 0.45 | 90 | 1017.1 |
| 20260508091247 | 71 | 9 | 1.7 | 2.6 | 0.00 | 0.44 | 0.44 | 91 | 1016.9 |
| 20260508090745 | 71 | 169 | 0.0 | 2.6 | 0.05 | 0.44 | 0.44 | 91 | 1017.0 |
| 20260508090243 | 71 | 11 | 3.5 | 5.2 | 0.05 | 0.44 | 0.44 | 91 | 1016.9 |
| 20260508085738 | 71 | 21 | 1.7 | 2.6 | 0.07 | 0.43 | 0.43 | 91 | 1016.8 |
| 20260508085236 | 71 | 68 | 0.9 | 6.1 | 0.12 | 0.42 | 0.42 | 91 | 1016.6 |
| 20260508084731 | 71 | 330 | 0.9 | 7.8 | 0.05 | 0.41 | 0.41 | 91 | 1016.7 |
| 20260508084229 | 72 | 44 | 1.7 | 2.6 | 0.07 | 0.40 | 0.40 | 92 | 1016.5 |
| 20260508083727 | 72 | 343 | 0.9 | 1.7 | 0.00 | 0.39 | 0.39 | 92 | 1016.5 |
| 20260508083225 | 72 | 274 | 5.2 | 6.1 | 0.00 | 0.39 | 0.39 | 92 | 1016.4 |
| 20260508082719 | 72 | 307 | 6.1 | 11.3 | 0.05 | 0.39 | 0.39 | 92 | 1016.5 |
| 20260508082217 | 72 | 304 | 2.6 | 5.2 | 0.24 | 0.39 | 0.39 | 92 | 1016.3 |
| 20260508081714 | 72 | 317 | 4.3 | 8.7 | 0.24 | 0.38 | 0.38 | 92 | 1016.1 |
| 20260508081210 | 72 | 43 | 3.5 | 5.2 | 0.05 | 0.35 | 0.35 | 92 | 1016.4 |
| 20260508080708 | 73 | 282 | 5.2 | 6.1 | 0.07 | 0.34 | 0.34 | 91 | 1016.3 |
| 20260508080206 | 73 | 321 | 3.5 | 5.2 | 0.07 | 0.34 | 0.34 | 91 | 1016.5 |
| 20260508075702 | 73 | 95 | 0.0 | 0.9 | 0.00 | 0.33 | 0.33 | 92 | 1016.3 |